DW4393 Weather Reports


Display with metric or nautical units.
time (UTC)temp
F
wind
direction
speed
MPH
gust
MPH
rain 1hr
in
rain 24hr
in
rain mn
in
humidity
%
barometer
mb
20260903130803 75 88 0.0 0.0 0.00 0.00 0.00 93 1017.4
20260903130305 75 88 0.0 0.0 0.00 0.00 0.00 93 1017.4
20260903124304 73 88 0.0 0.0 0.00 0.00 0.00 94 1017.6
20260903123804 73 88 0.0 0.0 0.00 0.00 0.00 94 1017.5
20260903123303 72 88 0.0 0.0 0.00 0.00 0.00 94 1017.5
20260903121804 72 88 0.0 0.0 0.00 0.00 0.00 94 1017.5
20260903121304 71 88 0.0 0.0 0.00 0.00 0.00 94 1017.4
20260903120804 71 88 0.0 0.0 0.00 0.00 0.00 94 1017.4
20260903120304 71 88 0.0 0.0 0.00 0.00 0.00 94 1017.4
20260903114804 71 88 0.0 0.0 0.00 0.00 0.00 94 1017.3
20260903114304 71 88 0.0 0.0 0.00 0.00 0.00 94 1017.3
20260903113803 71 88 0.0 0.0 0.00 0.00 0.00 94 1017.1
20260903113304 71 88 0.0 0.0 0.00 0.00 0.00 94 1017.1
20260903111304 71 88 0.0 0.0 0.00 0.00 0.00 94 1016.9
20260903110804 71 88 0.0 0.0 0.00 0.00 0.00 94 1016.8
20260903110304 71 88 0.0 0.0 0.00 0.00 0.00 94 1016.7
20260903104806 71 88 0.0 0.0 0.00 0.00 0.00 94 1016.6
20260903104304 71 88 0.0 0.0 0.00 0.00 0.00 94 1016.6
20260903103803 71 88 0.0 0.0 0.00 0.00 0.00 94 1016.6
20260903103304 71 88 0.0 0.0 0.00 0.00 0.00 94 1016.5
20260903101804 71 88 0.0 0.0 0.00 0.00 0.00 93 1016.5
20260903100804 71 88 0.0 0.0 0.00 0.00 0.00 94 1016.3
20260903100303 71 88 0.0 0.0 0.00 0.00 0.00 93 1016.4
20260903094804 72 88 0.0 0.0 0.00 0.00 0.00 93 1016.5
20260903094303 72 87 0.0 0.0 0.00 0.00 0.00 93 1016.4
20260903093804 72 79 0.0 0.0 0.00 0.00 0.00 93 1016.3
20260903093304 72 79 0.0 0.0 0.00 0.00 0.00 93 1016.5
20260903091804 72 79 0.0 0.0 0.00 0.00 0.00 93 1016.3
20260903091304 72 79 0.0 0.0 0.00 0.00 0.00 93 1016.4
20260903090804 72 79 0.0 0.0 0.00 0.00 0.00 93 1016.3
20260903084804 72 79 0.0 0.0 0.00 0.00 0.00 93 1016.1
20260903084304 72 79 0.0 0.0 0.00 0.00 0.00 93 1016.2
20260903083805 72 79 0.0 0.0 0.00 0.00 0.00 93 1016.2
20260903083304 72 79 0.0 0.0 0.00 0.00 0.00 93 1016.3
20260903081804 73 79 0.0 0.0 0.00 0.00 0.00 92 1016.4
20260903080804 73 79 0.0 0.0 0.00 0.00 0.00 92 1016.4
20260903080304 73 79 0.0 0.0 0.00 0.00 0.00 92 1016.3
20260903074804 73 79 0.0 0.0 0.00 0.00 0.00 92 1016.3
20260903074304 73 79 0.0 0.0 0.00 0.00 0.00 92 1016.3
20260903073804 73 79 0.0 0.0 0.00 0.00 0.00 92 1016.3
20260903071304 73 79 0.0 0.0 0.00 0.00 0.00 92 1016.2
20260903070804 73 79 0.0 0.0 0.00 0.00 0.00 92 1016.2
20260903064804 73 79 0.0 0.0 0.00 0.00 0.00 92 1016.3
20260903064304 74 79 0.0 0.0 0.00 0.00 0.00 92 1016.2
20260903063805 74 79 0.0 0.0 0.00 0.00 0.00 91 1016.3
20260903063305 74 79 0.0 0.0 0.00 0.00 0.00 91 1016.4
20260903061804 74 79 0.0 0.0 0.00 0.00 0.00 91 1016.3
20260903061304 74 79 0.0 0.0 0.00 0.00 0.00 91 1016.3
20260903060804 74 79 0.0 0.0 0.00 0.00 0.00 91 1016.4
20260903060304 74 79 0.0 0.0 0.00 0.00 0.00 91 1016.4
20260903054804 74 79 0.0 0.0 0.00 0.00 0.00 91 1016.3
20260903054304 74 79 0.0 0.0 0.00 0.00 0.00 90 1016.3
20260903053805 74 79 0.0 0.0 0.00 0.00 0.00 90 1016.4
20260903053304 75 79 0.0 0.0 0.00 0.00 0.00 90 1016.3
20260903051804 75 69 0.0 0.0 0.00 0.00 0.00 90 1016.5
20260903051304 75 69 0.0 0.0 0.00 0.00 0.00 90 1016.5
20260903050804 75 69 0.0 0.0 0.00 0.00 0.00 89 1016.5
20260903050305 75 69 0.0 0.0 0.00 0.00 0.00 89 1016.5
20260903044804 75 61 0.0 0.0 0.00 0.00 0.00 88 1016.5
20260903044307 76 57 0.0 0.0 0.00 0.00 0.00 88 1016.4
20260903043806 76 53 0.0 0.0 0.00 0.00 0.00 88 1016.4
20260903043304 76 53 0.0 0.0 0.00 0.00 0.00 88 1016.4
20260903041804 76 48 0.0 0.0 0.00 0.00 0.00 88 1016.4
20260903041305 76 21 0.0 0.0 0.00 0.00 0.00 88 1016.5
20260903040822 76 21 0.0 0.0 0.00 0.00 0.00 88 1016.5
20260903040305 76 21 0.0 0.0 0.00 0.00 0.00 87 1016.4
20260903034804 77 21 0.0 0.0 0.00 0.00 0.00 88 1016.5
20260903034305 77 21 0.0 0.0 0.00 0.00 0.00 87 1016.5
20260903033804 77 21 0.0 0.0 0.00 0.00 0.00 87 1016.5
20260903033304 77 21 0.0 0.0 0.00 0.00 0.00 86 1016.5
20260903031805 77 21 0.0 0.0 0.00 0.00 0.00 86 1016.5
20260903031304 77 21 0.0 0.0 0.00 0.00 0.00 86 1016.6
20260903030804 77 21 0.0 0.0 0.00 0.00 0.00 86 1016.6
20260903030304 78 21 0.0 0.0 0.00 0.00 0.00 86 1016.7
20260903024304 78 21 0.0 0.0 0.00 0.00 0.00 85 1016.6
20260903023304 79 21 0.0 0.0 0.00 0.00 0.00 84 1016.8
20260903021305 79 21 0.0 0.0 0.00 0.00 0.00 83 1016.7
20260903020304 80 21 0.0 0.0 0.00 0.00 0.00 82 1016.7
20260903014804 80 21 0.0 0.0 0.00 0.00 0.00 81 1016.4
20260903014305 80 21 0.0 0.0 0.00 0.00 0.00 80 1016.4
20260903013804 80 21 0.0 0.0 0.00 0.00 0.00 80 1016.4
20260903011805 82 21 0.0 0.0 0.00 0.00 0.00 79 1016.1
20260903011305 82 21 0.0 0.0 0.00 0.00 0.00 78 1016.2
20260903010305 82 21 0.0 0.0 0.00 0.00 0.00 75 1016.0
20260903004805 83 21 0.0 0.0 0.00 0.00 0.00 77 1015.8
20260903004305 83 21 0.0 0.0 0.00 0.00 0.00 76 1015.8
20260903003804 83 21 0.0 0.0 0.00 0.00 0.00 76 1015.6
20260903003305 84 21 0.0 0.0 0.00 0.00 0.00 75 1015.6
20260903001805 85 26 0.0 0.0 0.00 0.00 0.00 70 1015.4
20260903001304 86 24 0.0 0.0 0.00 0.00 0.00 69 1015.3
20260903000805 86 24 0.0 0.0 0.00 0.00 0.00 67 1015.3
20260903000304 87 24 0.0 0.0 0.00 0.00 0.00 67 1015.3
20260902234804 88 24 0.0 0.0 0.00 0.00 0.00 65 1015.2
20260902234304 88 24 0.0 0.0 0.00 0.00 0.00 65 1015.2
20260902233805 89 24 0.0 0.0 0.00 0.00 0.00 63 1015.2
20260902230804 91 24 0.0 0.0 0.00 0.00 0.00 58 1015.2
20260902224805 91 24 0.0 0.0 0.00 0.00 0.00 55 1015.4
20260902224305 91 24 0.0 0.0 0.00 0.00 0.00 54 1015.5
20260902223805 92 24 0.0 0.0 0.00 0.00 0.00 55 1015.5
20260902223305 92 24 0.0 0.0 0.00 0.00 0.00 52 1015.5
20260902221805 93 24 0.0 0.0 0.00 0.00 0.00 49 1015.4
20260902221304 93 24 0.0 0.0 0.00 0.00 0.00 49 1015.4
20260902220804 93 144 0.0 0.0 0.00 0.00 0.00 51 1015.4
20260902220305 94 175 0.0 0.0 0.00 0.00 0.00 48 1015.5
20260902214804 94 92 0.0 0.0 0.00 0.00 0.00 46 1015.5
20260902214305 94 156 0.0 0.0 0.00 0.00 0.00 46 1015.5
20260902213805 94 194 0.0 0.0 0.00 0.00 0.00 47 1015.5
20260902213304 94 119 0.0 0.0 0.00 0.00 0.00 49 1015.6
20260902211805 95 119 0.0 0.0 0.00 0.00 0.00 46 1015.6
20260902210804 95 321 0.0 0.0 0.00 0.00 0.00 46 1015.5
20260902204804 95 269 0.0 0.0 0.00 0.00 0.00 50 1015.6
20260902204305 96 269 0.0 0.0 0.00 0.00 0.00 46 1015.7
20260902203805 96 268 0.0 0.0 0.00 0.00 0.00 44 1015.7
20260902201804 98 98 0.0 0.0 0.00 0.00 0.00 42 1015.8
20260902200805 98 126 0.0 0.0 0.00 0.00 0.00 43 1015.9
20260902200304 97 134 0.0 0.0 0.00 0.00 0.00 44 1015.9
20260902194805 95 142 0.0 0.0 0.00 0.00 0.00 45 1016.3
20260902194305 94 211 0.0 0.0 0.00 0.00 0.00 50 1016.3
20260902193805 93 194 0.0 0.0 0.00 0.00 0.00 52 1016.3
20260902191804 95 303 0.0 0.0 0.00 0.00 0.00 48 1016.5
20260902190804 95 251 0.0 0.0 0.00 0.00 0.00 51 1016.6
20260902190305 93 255 0.0 0.0 0.00 0.00 0.00 53 1016.7
20260902184304 91 248 0.0 0.0 0.00 0.00 0.00 53 1017.0
20260902183805 92 248 0.0 0.0 0.00 0.00 0.00 54 1017.0
20260902183304 92 248 0.0 0.0 0.00 0.00 0.00 56 1017.1
20260902181805 90 248 0.0 0.0 0.00 0.00 0.00 58 1017.3
20260902180305 91 248 0.0 0.0 0.00 0.00 0.00 58 1017.3
20260902174805 91 248 0.0 0.0 0.00 0.00 0.00 58 1017.4
20260902174304 91 248 0.0 0.0 0.00 0.00 0.00 58 1017.5
20260902173805 91 248 0.0 0.0 0.00 0.00 0.00 54 1017.5
20260902173304 92 248 0.0 0.0 0.00 0.00 0.00 52 1017.5
20260902171805 93 236 0.0 0.0 0.00 0.00 0.00 54 1017.8
20260902171305 92 63 0.0 0.0 0.00 0.00 0.00 55 1017.9
20260902170805 92 219 0.0 0.0 0.00 0.00 0.00 54 1018.0
20260902170305 93 220 0.0 0.0 0.00 0.00 0.00 53 1018.0
20260902164805 93 276 0.0 0.0 0.00 0.00 0.00 51 1018.1
20260902164305 93 262 0.0 0.0 0.00 0.00 0.00 51 1018.3
20260902163305 92 245 0.0 0.0 0.00 0.00 0.00 54 1018.3
20260902161805 91 329 0.0 0.0 0.00 0.00 0.00 56 1018.4
20260902161305 91 313 0.0 0.0 0.00 0.00 0.00 55 1018.4
20260902160804 91 279 0.0 0.0 0.00 0.00 0.00 58 1018.4
20260902154805 89 178 0.0 0.0 0.00 0.00 0.00 62 1018.6
20260902154305 89 171 0.0 0.0 0.00 0.00 0.00 63 1018.6
20260902153805 89 171 0.0 0.0 0.00 0.00 0.00 65 1018.7
20260902153305 88 186 0.0 0.0 0.00 0.00 0.00 64 1018.6
20260902151805 87 187 0.0 0.0 0.00 0.00 0.00 66 1018.9
20260902151304 86 229 0.0 0.0 0.00 0.00 0.00 68 1018.9
20260902150805 86 228 0.0 0.0 0.00 0.00 0.00 69 1018.8
20260902150305 86 228 0.0 0.0 0.00 0.00 0.00 69 1018.9
20260902144805 84 228 0.0 0.0 0.00 0.00 0.00 73 1018.8
20260902144305 84 228 0.0 0.0 0.00 0.00 0.00 75 1018.7
20260902143806 83 309 0.0 0.0 0.00 0.00 0.00 77 1018.8
20260902143305 83 309 0.0 0.0 0.00 0.00 0.00 79 1018.7
20260902141805 81 309 0.0 0.0 0.00 0.00 0.00 81 1018.8
20260902141305 81 309 0.0 0.0 0.00 0.00 0.00 81 1018.9
20260902140805 80 309 0.0 0.0 0.00 0.00 0.00 82 1018.9
20260902140305 80 309 0.0 0.0 0.00 0.00 0.00 84 1018.9
20260902134805 78 309 0.0 0.0 0.00 0.00 0.00 88 1018.8
20260902134305 77 309 0.0 0.0 0.00 0.00 0.00 89 1018.8
20260902133805 77 309 0.0 0.0 0.00 0.00 0.00 90 1018.8
20260902133305 76 309 0.0 0.0 0.00 0.00 0.00 91 1018.7
20260902131805 75 309 0.0 0.0 0.00 0.00 0.00 91 1018.7
20260902131305 74 309 0.0 0.0 0.00 0.00 0.00 92 1018.8